Tracking 26303 objects as of 1-Dec-2022
HD Live streaming from Space Station
objects crossing your sky now

COSMOS 1408 DEB

Track COSMOS 1408 DEB now!
10-day predictions


NORAD ID: 51221
Int'l Code: 1982-092BAX
Perigee: 448.1 km
Apogee: 493.5 km
Inclination: 82.6 °
Period: 93.9 minutes
Semi major axis: 6841 km
RCS: Unknown
Launch date: September 16, 1982
Source: Commonwealth of Independent States (former USSR) (CIS)
Launch site: PLESETSK MISSILE AND SPACE COMPLEX (PKMTR)

Note: This is SATELLITE DEBRIS
aabbcc
Your satellite tracking list
Your tracking list is empty




NASA's NSSDC Master Catalog

Two Line Element Set (TLE):
1 51221U 82092BAX 22334.37943591  .00026400  00000-0  78438-3 0  9992
2 51221  82.5570 104.7614 0033205 159.0855 201.1755 15.34067881 50457
Source of the keplerian elements: AFSPC